Orbital Elements at Epoch 2459000.5 (2020-May-31.0) TDB
Reference: JPL 22 (heliocentric ecliptic J2000)
Element | Value | Uncertainty (1-sigma) | Units |
e | .1885960107666898 | 5.948e-08 | |
a | 2.385599408473615 | 1.0146e-08 | au |
q | 1.935684876748117 | 1.4061e-07 | au |
i | 4.560310414174282 | 4.49e-06 | deg |
node | 166.1512009878986 | 6.2498e-05 | deg |
peri | 230.53758198 | 6.3204e-05 | deg |
M | 193.0672398504077 | 1.0751e-05 | deg |
tp | 2459624.570678449070 (2022-Feb-14.07067845) | 4.2571e-05 | TDB |
period | 1345.843943635373 3.68 | 8.5859e-06 2.351e-08 | d yr |
n | .2674901512188505 | 1.7065e-09 | deg/d |
Q | 2.835513940199114 | 1.206e-08 | au |
|
| | Orbit Determination Parameters
Additional Information
|